[[{"header":{"parameterUnit":"m.s-1","parameterCategory":2,"la1":30.2991,"la2":30.254,"lo1":-89.0895,"lo2":-89.0444,"dy":0.0017,"dx":0.0017,"nx":28,"ny":28,"refTime":"2025-12-25T03:00:00:Z","depth":"0","parameterNumber":2,"parameterNumberName":"U-component_of_CURRENTS"},"data":[0,0,0,0,0,0,0,0,0,0,0,0,0,0,0,0,0,0,0,0,0,0,0,0,0,0,0,0,0,0,0,0,0,0,0,0,0,0,0,0,0,0,0,0,0,0,0,0,0,0,0,0,0,0,0,0,0,0,0.1724,0.1724,0,0.1738,0.1738,0.1739,0.1773,0.1774,0.1774,0.1775,0.1764,0.1763,0.1762,0,0,0,0,0,0,0,0,0,0,0,0,0,0.1753,0.1752,0.1724,0.1724,0.1724,0.1738,0.1738,0.1739,0.1773,0.1774,0.1775,0.1775,0.1764,0.1763,0.1762,0,0,0,0,0,0,0,0,0,0,0,0,0,0.1752,0.1752,0.1724,0.1742,0.1744,0.1738,0.1738,0.1739,0.1773,0.1774,0.1775,0.1776,0.1765,0.1763,0.1762,0.1736,0,0,0.1758,0.1758,0,0,0,0,0,0,0,0,0.1752,0.1751,0.174,0.1741,0.1743,0.1754,0.1745,0.1736,0.1773,0.1763,0.1775,0.1776,0.1757,0.1756,0.1759,0.1735,0.1735,0.1758,0.1757,0.1757,0.1756,0,0,0,0,0,0,0,0.1752,0.1751,0.1731,0.1739,0.1741,0.1758,0.1759,0.1743,0.1755,0.1764,0.1766,0.1766,0.1758,0.176,0.1759,0.1735,0.1758,0.1757,0.1756,0.1756,0.1725,0.1725,0,0,0,0,0,0,0.1745,0.175,0.1731,0.1731,0.1748,0.1757,0.1758,0.175,0.1756,0.1758,0.1765,0.1767,0.1762,0.176,0.1759,0.1758,0.1757,0.1756,0.1755,0.1725,0.1725,0.1725,0,0,0,0,0,0,0.1745,0.1743,0.173,0.1741,0.174,0.1755,0.1747,0.175,0.1755,0.1757,0.1758,0.1767,0.1763,0.176,0.1758,0.1757,0.1755,0.1754,0.1725,0.1725,0.1725,0.1737,0,0,0,0,0,0,0.1746,0.1743,0.1737,0.174,0.1739,0.1729,0.1746,0.175,0.1753,0.1756,0.1758,0.1758,0.1763,0.1761,0.1757,0.1755,0.1753,0.1725,0.1725,0.1725,0.1737,0.1738,0.1738,0,0,0,0,0,0.1747,0.1738,0.1737,0.1735,0.173,0.1728,0.173,0.1745,0.1752,0.1753,0.1762,0.1758,0.1758,0.1759,0.1756,0.1753,0.1725,0.1725,0.1725,0.1737,0.1738,0.1738,0,0,0,0,0,0,0.1744,0.1741,0.174,0.1729,0.1728,0.1734,0.1736,0.174,0.1748,0.175,0.1756,0.1757,0.1758,0.1749,0.1751,0.1744,0.174,0.1739,0.1751,0.1751,0.1752,0.1756,0.1752,0,0,0,0,0,0.1739,0.174,0.1731,0.1726,0.172,0.1725,0.1726,0.1732,0.1737,0.1741,0.1746,0.1748,0.1752,0.1747,0.1749,0.1735,0.1748,0.1732,0.1732,0.1733,0.1734,0.1757,0.176,0.1724,0.1724,0.1724,0,0,0.1736,0.1736,0.1735,0.1727,0.1727,0.1719,0.1729,0.1726,0.1729,0.1736,0.1743,0.175,0.1751,0.1752,0.175,0.1744,0.1751,0.1733,0.1733,0.1734,0.1757,0.1761,0.1764,0.1724,0.1724,0.1724,0,0,0.1738,0.1727,0.1729,0.1723,0.1719,0.1717,0.1714,0.1713,0.1723,0.1724,0.1738,0.1745,0.1741,0.1749,0.175,0.1748,0.1759,0.1745,0.1745,0.1768,0.1771,0.1774,0.1804,0.1809,0.1739,0.1739,0.1739,0,0.1739,0.173,0.1729,0.1725,0.1719,0.1714,0.1705,0.1709,0.1714,0.1722,0.1727,0.1744,0.1741,0.1751,0.1756,0.175,0.177,0.1743,0.177,0.1773,0.1776,0.1806,0.1812,0.174,0.174,0.174,0.174,0,0.1738,0.1729,0.1726,0.172,0.1713,0.1704,0.1699,0.1703,0.1709,0.1716,0.1733,0.1741,0.1752,0.175,0.1753,0.1769,0.178,0.1775,0.1771,0.1781,0.1811,0.1817,0.1741,0.1741,0.174,0.174,0,0,0.1739,0.173,0.1726,0.172,0.1706,0.1699,0.1702,0.1702,0.1713,0.172,0.1744,0.1747,0.1756,0.1759,0.1764,0.1778,0.1817,0.1785,0.1786,0.1819,0.1881,0.1948,0.1961,0.1823,0.1823,0.1824,0.1896,0,0.1737,0.1729,0.1724,0.171,0.1697,0.1694,0.1698,0.17,0.1714,0.1737,0.1749,0.1771,0.1757,0.1773,0.1783,0.1819,0.1832,0.1798,0.1861,0.1863,0.1926,0.197,0.2062,0.214,0.1902,0.1903,0.1904,0,0.1725,0.1725,0.1712,0.1703,0.1697,0.1691,0.1697,0.1702,0.173,0.1745,0.1766,0.1786,0.1815,0.1803,0.1855,0.1839,0.1855,0.1875,0.1879,0.1941,0.1942,0.2089,0.216,0.2161,0.1914,0.1913,0.1912,0,0.1716,0.1707,0.1699,0.1693,0.1687,0.1689,0.1689,0.1705,0.1716,0.176,0.1784,0.1815,0.1848,0.1873,0.1917,0.1891,0.1988,0.1954,0.2025,0.203,0.212,0.2132,0.2205,0.1981,0.1981,0.1981,0.1981,0,0.1699,0.1688,0.1695,0.1688,0.1684,0.1683,0.1689,0.1701,0.173,0.1748,0.1787,0.1826,0.1869,0.193,0.1945,0.203,0.201,0.2045,0.2061,0.2128,0.2139,0.2152,0.2076,0.1984,0.1983,0.1983,0.1982,0,0.1669,0.1677,0.167,0.1675,0.1676,0.1672,0.168,0.1685,0.1722,0.1756,0.1775,0.1851,0.1949,0.2003,0.2072,0.2083,0.2136,0.2166,0.2251,0.2277,0.2336,0.2256,0.2215,0.2195,0.2258,0.226,0.2262,0,0.1649,0.1644,0.1656,0.1651,0.1649,0.1649,0.1645,0.1675,0.1687,0.177,0.179,0.1909,0.1993,0.2149,0.2242,0.233,0.2228,0.2419,0.2375,0.2376,0.2298,0.2157,0.2131,0.2499,0.2502,0.2505,0.2508,0,0.1608,0.1618,0.1614,0.161,0.1608,0.1612,0.1618,0.1639,0.1683,0.1736,0.183,0.1917,0.2116,0.2285,0.2425,0.2479,0.2389,0.2481,0.2465,0.2485,0.2352,0.2331,0.2405,0.2534,0.2532,0.253,0.2528,0.2527,0.1573,0.1566,0.1565,0.1554,0.1557,0.1572,0.1576,0.1614,0.1667,0.1752,0.1842,0.1982,0.2258,0.2505,0.2565,0.2749,0.2562,0.2736,0.2639,0.2497,0.2477,0.2615,0.2768,0.2767,0.2766,0.2765,0.2764,0,0.1506,0.1508,0.1501,0.1498,0.1479,0.1506,0.1543,0.156,0.1628,0.1758,0.1855,0.2148,0.241,0.2625,0.2895,0.2904,0.2822,0.2868,0.2703,0.2669,0.2826,0.2844,0.3042,0.3042,0.3042,0.3042,0.3042,0.3042,0.1472,0.1444,0.1448,0.1415,0.1414,0.141,0.1435,0.1497,0.1594,0.1769,0.1924,0.2059,0.2373,0.2769,0.2963,0.2965,0.2799,0.2765,0.2642,0.2789,0.2769,0.2749,0.2755,0.2932,0.2931,0.2534,0.253,0.2528]},{"header":{"parameterUnit":"m.s-1","parameterCategory":2,"la1":30.2991,"la2":30.254,"lo1":-89.0895,"lo2":-89.0444,"dy":0.0017,"dx":0.0017,"nx":28,"ny":28,"refTime":"2025-12-25T03:00:00:Z","depth":"0","parameterNumber":3,"parameterNumberName":"V-component_of_CURRENTS"},"data":[0,0,0,0,0,0,0,0,0,0,0,0,0,0,0,0,0,0,0,0,0,0,0,0,0,0,0,0,0,0,0,0,0,0,0,0,0,0,0,0,0,0,0,0,0,0,0,0,0,0,0,0,0,0,0,0,0,0,-0.0259,-0.026,0,-0.0298,-0.0299,-0.0299,-0.032,-0.032,-0.032,-0.032,-0.037,-0.0372,-0.0373,0,0,0,0,0,0,0,0,0,0,0,0,0,-0.02,-0.0201,-0.0259,-0.026,-0.026,-0.0298,-0.0299,-0.0299,-0.032,-0.032,-0.032,-0.032,-0.037,-0.0372,-0.0373,0,0,0,0,0,0,0,0,0,0,0,0,0,-0.0232,-0.0201,-0.0259,-0.0274,-0.0275,-0.0298,-0.0299,-0.0299,-0.032,-0.032,-0.032,-0.032,-0.0369,-0.0371,-0.0373,-0.0389,0,0,-0.038,-0.0381,0,0,0,0,0,0,0,0,-0.023,-0.0234,-0.0271,-0.0273,-0.0275,-0.0303,-0.0296,-0.0329,-0.032,-0.0305,-0.032,-0.032,-0.0348,-0.0352,-0.0361,-0.0392,-0.0394,-0.038,-0.0381,-0.0382,-0.0383,0,0,0,0,0,0,0,-0.0228,-0.0233,-0.0276,-0.0272,-0.0274,-0.0277,-0.0282,-0.0302,-0.0328,-0.0306,-0.0307,-0.0309,-0.0349,-0.0359,-0.0363,-0.0394,-0.038,-0.0382,-0.0383,-0.0384,-0.0446,-0.0446,0,0,0,0,0,0,-0.0221,-0.0231,-0.0275,-0.0277,-0.025,-0.0278,-0.0283,-0.0295,-0.0328,-0.0332,-0.0309,-0.031,-0.0356,-0.036,-0.0365,-0.0373,-0.0382,-0.0384,-0.0386,-0.0445,-0.0446,-0.0446,0,0,0,0,0,0,-0.0219,-0.0225,-0.0273,-0.0253,-0.0259,-0.0279,-0.0292,-0.0296,-0.0307,-0.033,-0.0334,-0.0316,-0.0356,-0.0362,-0.0385,-0.0376,-0.0385,-0.0387,-0.0445,-0.0445,-0.0446,-0.0399,0,0,0,0,0,0,-0.0218,-0.0224,-0.0233,-0.0253,-0.026,-0.0285,-0.0292,-0.0297,-0.0307,-0.0309,-0.0337,-0.0341,-0.0356,-0.0382,-0.0387,-0.0379,-0.0389,-0.0444,-0.0445,-0.0446,-0.04,-0.0398,-0.0396,0,0,0,0,0,-0.0216,-0.0227,-0.0233,-0.0238,-0.027,-0.0285,-0.0289,-0.0304,-0.0307,-0.0313,-0.0333,-0.034,-0.039,-0.0384,-0.039,-0.0382,-0.0444,-0.0445,-0.0446,-0.0401,-0.0398,-0.0396,0,0,0,0,0,0,-0.0199,-0.023,-0.0238,-0.0256,-0.0268,-0.0288,-0.0296,-0.0303,-0.0324,-0.0325,-0.0347,-0.0354,-0.037,-0.0389,-0.0382,-0.0404,-0.0418,-0.042,-0.0381,-0.0379,-0.0377,-0.0353,-0.0391,0,0,0,0,0,-0.02,-0.0219,-0.0241,-0.0252,-0.0261,-0.0278,-0.0286,-0.0294,-0.0312,-0.0321,-0.0338,-0.036,-0.0379,-0.0389,-0.041,-0.0424,-0.0429,-0.0424,-0.0422,-0.042,-0.0406,-0.0412,-0.0409,-0.0449,-0.0449,-0.0449,0,0,-0.0194,-0.0214,-0.0223,-0.025,-0.0263,-0.0263,-0.0283,-0.0294,-0.0289,-0.0323,-0.0329,-0.0354,-0.0383,-0.0396,-0.0404,-0.0409,-0.0413,-0.0421,-0.0418,-0.0406,-0.0413,-0.0408,-0.0405,-0.0449,-0.0449,-0.0449,0,0,-0.0181,-0.0211,-0.0218,-0.0228,-0.0245,-0.0256,-0.0257,-0.0277,-0.0285,-0.0299,-0.0318,-0.0336,-0.037,-0.038,-0.0392,-0.0393,-0.0403,-0.0405,-0.0371,-0.0377,-0.0373,-0.0369,-0.037,-0.0367,-0.0401,-0.0401,-0.0401,0,-0.0171,-0.0181,-0.0218,-0.0219,-0.0217,-0.0249,-0.0237,-0.0254,-0.0274,-0.0274,-0.0296,-0.0328,-0.0358,-0.0357,-0.0363,-0.0385,-0.039,-0.0374,-0.0371,-0.0368,-0.0365,-0.0367,-0.0364,-0.0399,-0.0399,-0.0399,-0.04,0,-0.0155,-0.0161,-0.0164,-0.0176,-0.0182,-0.018,-0.02,-0.0207,-0.0224,-0.0234,-0.0245,-0.0285,-0.03,-0.0317,-0.0344,-0.0337,-0.0347,-0.0367,-0.037,-0.0358,-0.0361,-0.0359,-0.0396,-0.0397,-0.0397,-0.0398,0,0,-0.0134,-0.015,-0.0149,-0.0136,-0.0156,-0.0152,-0.0154,-0.0156,-0.0143,-0.0178,-0.0159,-0.0208,-0.0228,-0.0243,-0.0274,-0.0285,-0.0282,-0.0316,-0.0318,-0.0303,-0.0288,-0.0296,-0.0295,-0.03,-0.0299,-0.0299,-0.0297,0,-0.0105,-0.0087,-0.0107,-0.0077,-0.0065,-0.0089,-0.0083,-0.0089,-0.0105,-0.01,-0.0139,-0.0146,-0.02,-0.0207,-0.0225,-0.0262,-0.0275,-0.028,-0.0314,-0.0315,-0.0312,-0.0292,-0.0261,-0.0257,-0.0295,-0.0295,-0.0295,0,-0.0075,-0.0067,-0.0034,-0.0016,-0.0013,-0.0001,0.0015,0.0016,0.0004,-0.001,-0.0024,-0.0058,-0.0076,-0.0132,-0.0175,-0.0175,-0.0229,-0.0263,-0.0265,-0.0283,-0.0319,-0.0278,-0.0252,-0.0344,-0.0292,-0.0292,-0.0292,0,-0.0025,-0.0011,0.0021,0.0027,0.0034,0.0051,0.0054,0.005,0.0057,0.0051,0.0057,0.0027,0.0016,-0.0045,-0.0131,-0.0152,-0.0176,-0.0215,-0.027,-0.0271,-0.0256,-0.0257,-0.0309,-0.025,-0.025,-0.025,-0.025,0,0.0018,0.0047,0.0049,0.007,0.0113,0.0102,0.0142,0.0137,0.0138,0.0158,0.0109,0.0123,0.0034,-0.0,-0.0088,-0.016,-0.0145,-0.0251,-0.0267,-0.0241,-0.024,-0.033,-0.0414,-0.025,-0.025,-0.025,-0.025,0,0.0072,0.007,0.0114,0.0132,0.0139,0.0173,0.0191,0.0211,0.0207,0.0235,0.0233,0.0205,0.0165,0.0076,-0.001,-0.0097,-0.0229,-0.0209,-0.0169,-0.0181,-0.0325,-0.0408,-0.0472,-0.055,-0.026,-0.026,-0.026,0,0.0103,0.0128,0.0164,0.0185,0.0195,0.0231,0.0247,0.0246,0.0264,0.0285,0.0303,0.0281,0.0275,0.0163,0.0018,-0.0109,-0.0227,-0.0181,-0.0225,-0.0316,-0.042,-0.046,-0.0526,-0.0186,-0.0186,-0.0185,-0.0185,0,0.0163,0.0173,0.0205,0.0244,0.027,0.0302,0.0327,0.0352,0.0353,0.0383,0.0418,0.0424,0.0322,0.0238,0.0066,-0.0046,-0.0254,-0.0178,-0.0278,-0.0368,-0.0407,-0.0496,-0.0208,-0.0181,-0.0182,-0.0182,-0.0182,-0.0182,0.0207,0.024,0.0268,0.0307,0.0336,0.037,0.0405,0.0429,0.0476,0.0533,0.0528,0.0586,0.0456,0.0237,0.0048,-0.0217,-0.0263,-0.0289,-0.038,-0.0408,-0.0492,-0.0196,-0.019,-0.0191,-0.0191,-0.0191,-0.0192,0,0.0252,0.0279,0.0322,0.0369,0.0405,0.0406,0.0452,0.0491,0.0557,0.0634,0.0684,0.0728,0.0531,0.0293,-0.0043,-0.032,-0.0459,-0.0478,-0.0527,-0.0588,-0.0312,-0.0316,-0.033,-0.033,-0.033,-0.033,-0.033,-0.033,0.0278,0.0322,0.034,0.0413,0.0446,0.0499,0.053,0.0594,0.0666,0.0815,0.0919,0.0991,0.0913,0.0234,-0.0272,-0.0456,-0.07,-0.0748,-0.089,-0.0697,-0.0685,-0.0675,-0.0696,-0.0789,-0.0789,-0.1102,-0.1105,-0.1107]}],[{"header":{"parameterUnit":"m.s-1","parameterCategory":2,"la1":30.2991,"la2":30.254,"lo1":-89.0895,"lo2":-89.0444,"dy":0.0017,"dx":0.0017,"nx":28,"ny":28,"refTime":"2025-12-25T03:00:00:Z","depth":"2","parameterNumber":2,"parameterNumberName":"U-component_of_CURRENTS"},"data":[0,0,0,0,0,0,0,0,0,0,0,0,0,0,0,0,0,0,0,0,0,0,0,0,0,0,0,0,0,0,0,0,0,0,0,0,0,0,0,0,0,0,0,0,0,0,0,0,0,0,0,0,0,0,0,0,0,0,-0.0155,-0.0154,0,-0.0124,-0.0124,-0.0124,-0.0095,-0.0094,-0.0094,-0.0093,-0.0056,-0.0056,-0.0055,0,0,0,0,0,0,0,0,0,0,0,0,0,-0.0194,-0.0194,-0.0155,-0.0154,-0.0154,-0.0124,-0.0124,-0.0124,-0.0095,-0.0094,-0.0094,-0.0093,-0.0057,-0.0056,-0.0055,0,0,0,0,0,0,0,0,0,0,0,0,0,-0.0173,-0.0194,-0.0155,-0.0135,-0.0133,-0.0124,-0.0124,-0.0124,-0.0095,-0.0094,-0.0094,-0.0093,-0.0057,-0.0056,-0.0055,-0.0063,0,0,-0.0053,-0.0052,0,0,0,0,0,0,0,0,-0.0174,-0.0171,-0.0139,-0.0137,-0.0134,-0.0112,-0.0124,-0.0103,-0.0095,-0.011,-0.0093,-0.0093,-0.0074,-0.0072,-0.0069,-0.0062,-0.006,-0.0053,-0.0052,-0.0052,-0.0051,0,0,0,0,0,0,0,-0.0176,-0.0173,-0.0144,-0.0138,-0.0135,-0.013,-0.0126,-0.012,-0.0097,-0.0109,-0.0107,-0.0102,-0.0073,-0.007,-0.0068,-0.006,-0.0053,-0.0052,-0.0051,-0.0051,0.0011,0.0012,0,0,0,0,0,0,-0.0178,-0.0174,-0.0144,-0.0143,-0.0152,-0.013,-0.0126,-0.012,-0.0097,-0.0093,-0.0103,-0.0101,-0.0072,-0.0069,-0.0067,0.0002,-0.0052,-0.0051,-0.005,0.001,0.0012,0.0013,0,0,0,0,0,0,-0.0179,-0.0175,-0.0146,-0.0157,-0.0153,-0.013,-0.0124,-0.012,-0.0104,-0.0092,-0.0088,-0.0089,-0.0071,-0.0068,-0.0043,0.0001,-0.005,-0.005,0.0009,0.0011,0.0012,0.0091,0,0,0,0,0,0,-0.018,-0.0176,-0.0174,-0.0157,-0.0152,-0.0132,-0.0125,-0.012,-0.0103,-0.0099,-0.0079,-0.0076,-0.007,-0.0044,-0.0042,0.0001,-0.0049,0.0007,0.001,0.0012,0.0086,0.0095,0.0102,0,0,0,0,0,-0.0182,-0.0181,-0.0174,-0.017,-0.0149,-0.0131,-0.0128,-0.0111,-0.0102,-0.0094,-0.0075,-0.0076,-0.0029,-0.0043,-0.0041,0.0004,0.0006,0.0009,0.0011,0.0083,0.0093,0.0102,0,0,0,0,0,0,-0.02,-0.0177,-0.0169,-0.0163,-0.0144,-0.0126,-0.0118,-0.0106,-0.0085,-0.0077,-0.0067,-0.0062,-0.0022,-0.0028,-0.0044,0.0027,-0.0009,-0.0006,0.0045,0.0054,0.0061,0.0078,-0.0048,0,0,0,0,0,-0.0203,-0.0193,-0.0172,-0.0165,-0.0155,-0.0135,-0.0125,-0.011,-0.009,-0.008,-0.0061,-0.004,-0.0013,0.0004,0.0018,0.0051,0.0069,0.0081,0.0089,0.0096,0.011,0.0175,0.019,0.0021,0.0021,0.0021,0,0,-0.0209,-0.0194,-0.0189,-0.0167,-0.0152,-0.0124,-0.0127,-0.0105,-0.0071,-0.008,-0.0029,-0.0016,-0.0001,0.0045,0.0063,0.0049,0.0154,0.0099,0.0105,0.0116,0.0179,0.0196,0.0211,0.0023,0.0023,0.0022,0,0,-0.0207,-0.02,-0.0185,-0.0164,-0.0134,-0.0117,-0.0108,-0.0077,-0.0052,-0.0013,0.0001,0.0042,0.0068,0.0105,0.0123,0.0176,0.0188,0.0178,0.024,0.0303,0.0318,0.0331,0.0381,0.0398,0.0188,0.0188,0.0188,0,-0.0215,-0.0184,-0.0179,-0.0151,-0.0122,-0.0109,-0.0072,-0.005,-0.0011,0.0025,0.0012,0.0096,0.0104,0.0186,0.0209,0.0199,0.0228,0.0206,0.0316,0.0329,0.0342,0.0389,0.0407,0.0192,0.0192,0.0191,0.0191,0,-0.0192,-0.0161,-0.0149,-0.0102,-0.0077,-0.0045,-0.0008,0.0028,0.0057,0.009,0.0168,0.0185,0.0241,0.0253,0.0248,0.0348,0.0339,0.0316,0.0297,0.0364,0.0409,0.0426,0.0198,0.0197,0.0195,0.0194,0,0,-0.0213,-0.0145,-0.0136,-0.0096,-0.0041,-0.0016,0.0047,0.0116,0.0171,0.021,0.0293,0.0343,0.0359,0.0379,0.0388,0.0442,0.0553,0.0423,0.0424,0.048,0.0695,0.0664,0.0679,0.0555,0.0558,0.0561,0.0693,0,-0.0187,-0.0122,-0.009,-0.0016,0.0026,0.007,0.0128,0.019,0.0242,0.0317,0.0364,0.0428,0.0406,0.0439,0.0497,0.0534,0.0602,0.0519,0.0614,0.0617,0.0589,0.07,0.0548,0.0652,0.071,0.0713,0.0715,0,-0.0162,-0.0117,-0.0044,0.0049,0.0072,0.0114,0.0222,0.0277,0.0377,0.042,0.0499,0.0525,0.062,0.0577,0.0706,0.0656,0.0692,0.0714,0.0719,0.0676,0.0619,0.0593,0.0681,0.0744,0.0741,0.0739,0.0737,0,-0.0164,-0.0077,-0.0014,0.0016,0.011,0.016,0.0215,0.0312,0.0374,0.0489,0.0542,0.0645,0.0699,0.0768,0.081,0.0774,0.0939,0.089,0.0902,0.0899,0.0781,0.0763,0.0999,0.0999,0.0999,0.0998,0.0998,0,-0.0138,-0.0084,-0.0013,0.0024,0.0103,0.0167,0.0262,0.0331,0.0436,0.0518,0.0591,0.0664,0.0751,0.0839,0.0869,0.095,0.0995,0.0948,0.0948,0.0803,0.0785,0.0861,0.0843,0.1003,0.1002,0.1001,0.1,0,-0.0139,-0.0092,-0.002,0.0073,0.0104,0.0159,0.0273,0.0341,0.0437,0.0547,0.0586,0.0711,0.0827,0.0907,0.1024,0.1024,0.1096,0.111,0.0928,0.0906,0.0998,0.0982,0.1152,0.1153,0.1153,0.1153,0.1153,0,-0.013,-0.0095,-0.0004,0.0035,0.0079,0.0164,0.0224,0.0331,0.04,0.0563,0.0613,0.0759,0.0835,0.1001,0.1032,0.1111,0.1144,0.1032,0.0935,0.1039,0.1023,0.1006,0.0991,0.0811,0.0808,0.0806,0.0804,0,-0.0113,-0.0087,-0.0034,0.0041,0.0101,0.0175,0.0265,0.0309,0.0438,0.052,0.0639,0.0709,0.0848,0.0874,0.0979,0.0985,0.1004,0.0991,0.1184,0.0787,0.0726,0.0706,0.0701,0.0785,0.0787,0.0789,0.079,0.079,-0.0107,-0.0076,-0.0013,0.0061,0.012,0.0184,0.0237,0.0313,0.0399,0.0516,0.059,0.0671,0.0703,0.0789,0.0825,0.0866,0.0912,0.0869,0.0872,0.0878,0.0807,0.0749,0.0799,0.0801,0.0802,0.0804,0.0805,0,-0.0085,-0.0045,0.0013,0.0093,0.0147,0.0189,0.0269,0.0301,0.037,0.0458,0.0534,0.0517,0.0536,0.063,0.0645,0.0668,0.062,0.0667,0.0586,0.0603,0.0618,0.0531,0.0452,0.0452,0.0452,0.0452,0,0,-0.0069,-0.0012,0.002,0.0107,0.016,0.0228,0.0266,0.029,0.0337,0.0388,0.0436,0.046,0.0532,0.0468,0.0467,0.0485,0.0536,0.0454,0.0717,0.0631,0.0647,0.0697,0.0577,0,0,0,0,0]},{"header":{"parameterUnit":"m.s-1","parameterCategory":2,"la1":30.2991,"la2":30.254,"lo1":-89.0895,"lo2":-89.0444,"dy":0.0017,"dx":0.0017,"nx":28,"ny":28,"refTime":"2025-12-25T03:00:00:Z","depth":"2","parameterNumber":3,"parameterNumberName":"V-component_of_CURRENTS"},"data":[0,0,0,0,0,0,0,0,0,0,0,0,0,0,0,0,0,0,0,0,0,0,0,0,0,0,0,0,0,0,0,0,0,0,0,0,0,0,0,0,0,0,0,0,0,0,0,0,0,0,0,0,0,0,0,0,0,0,0.0358,0.0358,0,0.0338,0.0337,0.0337,0.0337,0.0338,0.0338,0.0338,0.0309,0.0308,0.0306,0,0,0,0,0,0,0,0,0,0,0,0,0,0.0369,0.0369,0.0358,0.0358,0.0358,0.0338,0.0337,0.0337,0.0337,0.0338,0.0338,0.0339,0.0309,0.0308,0.0306,0,0,0,0,0,0,0,0,0,0,0,0,0,0.0357,0.0369,0.0358,0.0356,0.0356,0.0338,0.0337,0.0337,0.0337,0.0338,0.0338,0.0339,0.0309,0.0308,0.0306,0.0285,0,0,0.0301,0.03,0,0,0,0,0,0,0,0,0.0358,0.0357,0.0356,0.0356,0.0356,0.0341,0.0331,0.0319,0.0337,0.0343,0.0338,0.0339,0.0319,0.0316,0.031,0.0284,0.0282,0.0301,0.03,0.0299,0.0299,0,0,0,0,0,0,0,0.0359,0.0358,0.0349,0.0356,0.0356,0.0347,0.0346,0.0328,0.0327,0.0343,0.0343,0.0342,0.0319,0.0312,0.031,0.0282,0.0301,0.0299,0.0298,0.0298,0.0222,0.0221,0,0,0,0,0,0,0.0364,0.0358,0.035,0.0348,0.0359,0.0346,0.0345,0.0345,0.0328,0.0326,0.0342,0.0342,0.0315,0.0312,0.0309,0.0279,0.0299,0.0298,0.0297,0.0223,0.0222,0.0221,0,0,0,0,0,0,0.0364,0.0364,0.035,0.0354,0.0352,0.0346,0.0345,0.0344,0.034,0.0327,0.0325,0.034,0.0315,0.0311,0.0288,0.0278,0.0297,0.0295,0.0224,0.0223,0.0221,0.0222,0,0,0,0,0,0,0.0365,0.0364,0.0367,0.0354,0.0352,0.0336,0.0345,0.0343,0.0339,0.034,0.0325,0.0322,0.0315,0.0291,0.0286,0.0276,0.0294,0.0225,0.0223,0.0222,0.0223,0.022,0.0218,0,0,0,0,0,0.0365,0.0365,0.0367,0.0367,0.0356,0.0336,0.0333,0.033,0.0339,0.033,0.032,0.0323,0.0276,0.0288,0.0284,0.0273,0.0226,0.0224,0.0222,0.0224,0.0221,0.0218,0,0,0,0,0,0,0.0371,0.0365,0.0367,0.0366,0.0351,0.0336,0.0333,0.033,0.0316,0.0321,0.0311,0.0307,0.0282,0.0273,0.0288,0.0243,0.0251,0.0248,0.0254,0.0251,0.0249,0.0264,0.0293,0,0,0,0,0,0.0374,0.0373,0.0362,0.0359,0.0354,0.0344,0.0338,0.0334,0.032,0.0316,0.0304,0.0288,0.0267,0.0258,0.0238,0.0215,0.0209,0.0203,0.02,0.0199,0.0206,0.0181,0.0178,0.0213,0.0213,0.0213,0,0,0.0375,0.0372,0.0372,0.036,0.0352,0.0342,0.0342,0.0331,0.0322,0.0314,0.0298,0.028,0.0258,0.0232,0.022,0.0225,0.0183,0.0196,0.0195,0.0203,0.0178,0.0175,0.0172,0.0212,0.0212,0.0212,0,0,0.0371,0.0374,0.037,0.0361,0.035,0.0341,0.0339,0.0322,0.0316,0.0294,0.0285,0.0263,0.0232,0.0215,0.0202,0.0174,0.0171,0.0164,0.0166,0.0141,0.0138,0.0136,0.0122,0.0118,0.0163,0.0163,0.0163,0,0.0372,0.0371,0.0364,0.0357,0.0355,0.0342,0.0336,0.0322,0.0299,0.0296,0.0289,0.0245,0.0225,0.0197,0.0184,0.017,0.0159,0.0182,0.014,0.0137,0.0135,0.0121,0.0117,0.0163,0.0163,0.0163,0.0163,0,0.0362,0.0365,0.0361,0.0353,0.0345,0.0337,0.0321,0.0312,0.0304,0.0292,0.0265,0.0232,0.0211,0.0192,0.0178,0.0148,0.0147,0.0141,0.0152,0.0132,0.0118,0.0114,0.0163,0.0163,0.0163,0.0163,0,0,0.0351,0.0355,0.0354,0.0361,0.0347,0.0339,0.0327,0.0314,0.0317,0.0282,0.0279,0.0227,0.0217,0.0201,0.0178,0.015,0.0116,0.0138,0.0137,0.0135,0.0067,0.0057,0.0052,0.0102,0.0101,0.0101,0.0065,0,0.0345,0.0347,0.0346,0.0346,0.0347,0.0342,0.0335,0.0323,0.0312,0.0302,0.0267,0.0249,0.0218,0.0208,0.0174,0.0134,0.0106,0.0127,0.0079,0.0078,0.008,0.0047,0.0007,-0.0029,0.0061,0.006,0.006,0,0.0332,0.034,0.0346,0.0361,0.0361,0.036,0.0364,0.0356,0.034,0.0333,0.0309,0.0285,0.024,0.0218,0.014,0.0155,0.0112,0.0079,0.0076,0.0067,0.006,0.0005,-0.004,0.0053,0.0053,0.0054,0.0054,0,0.0329,0.0339,0.0351,0.0353,0.0362,0.0371,0.0376,0.0369,0.0372,0.0358,0.0359,0.0305,0.0282,0.0217,0.0143,0.014,0.0064,0.0052,0.0003,0.0003,-0.0039,-0.0043,-0.0002,-0.0002,-0.0002,-0.0002,-0.0002,0,0.0322,0.0332,0.0358,0.0364,0.0385,0.0387,0.0405,0.0406,0.0408,0.0414,0.0378,0.037,0.028,0.0226,0.0155,0.0068,0.0071,0.0001,-0.0012,-0.0041,-0.0044,0.0023,0.0026,-0.0003,-0.0003,-0.0003,-0.0002,0,0.0312,0.0327,0.0347,0.0374,0.0386,0.0403,0.0431,0.0443,0.0445,0.0454,0.045,0.0412,0.0344,0.0257,0.0155,0.0088,0.0006,-0.0023,-0.0045,-0.006,-0.004,-0.0036,-0.0085,-0.0086,-0.0087,-0.0087,-0.0088,0,0.0307,0.0316,0.0358,0.038,0.0397,0.0424,0.0444,0.0459,0.0476,0.0479,0.0485,0.0433,0.0391,0.0248,0.0114,-0.001,0.0001,-0.011,-0.013,-0.0044,-0.0051,-0.0046,-0.0042,-0.0188,-0.0189,-0.019,-0.0191,0,0.0302,0.032,0.0342,0.0391,0.0424,0.0453,0.0488,0.0505,0.052,0.0527,0.0533,0.0503,0.0364,0.0207,0.0044,-0.0037,-0.0095,-0.0134,-0.0052,-0.0154,-0.0142,-0.0148,-0.014,-0.02,-0.0199,-0.0198,-0.0198,-0.0197,0.0305,0.0323,0.0363,0.0407,0.0446,0.0486,0.0519,0.0548,0.0574,0.0574,0.0546,0.0469,0.0292,0.0041,-0.007,-0.017,-0.0152,-0.0211,-0.0208,-0.0204,-0.0202,-0.0191,-0.0258,-0.0258,-0.0257,-0.0257,-0.0256,0,0.0313,0.0342,0.0379,0.0439,0.0482,0.0507,0.0553,0.0574,0.0614,0.0553,0.0535,0.0292,0.0126,-0.0018,-0.0193,-0.0292,-0.0295,-0.0309,-0.0309,-0.03,-0.0293,-0.0295,-0.0376,-0.0376,-0.0377,-0.0377,0,0,0.0321,0.0357,0.0379,0.0459,0.0511,0.0581,0.0615,0.0629,0.0595,0.0498,0.0402,0.0275,0.0088,-0.0084,-0.0216,-0.0284,-0.026,-0.0296,-0.0197,-0.0174,-0.0165,-0.0242,-0.0237,0,0,0,0,0]}],[{"header":{"parameterUnit":"m.s-1","parameterCategory":2,"la1":30.2991,"la2":30.254,"lo1":-89.0895,"lo2":-89.0444,"dy":0.0017,"dx":0.0017,"nx":28,"ny":28,"refTime":"2025-12-25T03:00:00:Z","depth":"4","parameterNumber":2,"parameterNumberName":"U-component_of_CURRENTS"},"data":[0,0,0,0,0,0,0,0,0,0,0,0,0,0,0,0,0,0,0,0,0,0,0,0,0,0,0,0,0,0,0,0,0,0,0,0,0,0,0,0,0,0,0,0,0,0,0,0,0,0,0,0,0,0,0,0,0,0,0.0028,0.0027,0,0.0001,0.0001,0.0001,-0.0014,-0.0014,-0.0014,-0.0014,-0.0058,-0.0059,-0.006,0,0,0,0,0,0,0,0,0,0,0,0,0,0.0063,0.0063,0.0028,0.0027,0.0027,0.0001,0.0001,0.0001,-0.0014,-0.0014,-0.0014,-0.0014,-0.0057,-0.0059,-0.006,0,0,0,0,0,0,0,0,0,0,0,0,0,0.0043,0.0062,0.0028,0.0018,0.0016,0.0002,0.0001,0.0,-0.0014,-0.0014,-0.0014,-0.0013,-0.0057,-0.0059,-0.006,-0.0073,0,0,-0.0066,-0.0067,0,0,0,0,0,0,0,0,0.0044,0.0041,0.0019,0.0018,0.0017,-0.0002,-0.0003,-0.0025,-0.0014,-0.0003,-0.0014,-0.0013,-0.004,-0.0043,-0.0049,-0.0075,-0.0077,-0.0066,-0.0067,-0.0068,-0.0068,0,0,0,0,0,0,0,0.0045,0.0042,0.0016,0.0019,0.0018,0.0014,0.0011,-0.0007,-0.0023,-0.0004,-0.0005,-0.0006,-0.0041,-0.0048,-0.0051,-0.0078,-0.0066,-0.0068,-0.0069,-0.0069,-0.0122,-0.0122,0,0,0,0,0,0,0.005,0.0044,0.0017,0.0016,0.0032,0.0013,0.001,0.0003,-0.0022,-0.0026,-0.0007,-0.0007,-0.0045,-0.0048,-0.0052,-0.0075,-0.0068,-0.007,-0.0071,-0.0121,-0.0122,-0.0122,0,0,0,0,0,0,0.0051,0.0048,0.0018,0.003,0.0026,0.0013,0.0005,0.0003,-0.0005,-0.0024,-0.0028,-0.0011,-0.0045,-0.005,-0.0072,-0.0076,-0.007,-0.0072,-0.0121,-0.0121,-0.0122,-0.0116,0,0,0,0,0,0,0.0052,0.0048,0.0047,0.003,0.0026,0.0009,0.0005,0.0002,-0.0005,-0.0006,-0.0029,-0.0033,-0.0045,-0.0069,-0.0074,-0.0079,-0.0074,-0.0121,-0.0121,-0.0122,-0.0116,-0.0116,-0.0116,0,0,0,0,0,0.0053,0.0049,0.0047,0.0044,0.0024,0.0008,0.0006,-0.0004,-0.0006,-0.0011,-0.0028,-0.0032,-0.0076,-0.0071,-0.0077,-0.0082,-0.012,-0.0121,-0.0122,-0.0116,-0.0116,-0.0116,0,0,0,0,0,0,0.0062,0.0047,0.0044,0.0035,0.0024,0.0006,0.0002,-0.0004,-0.0021,-0.0022,-0.004,-0.0045,-0.0065,-0.0075,-0.007,-0.0098,-0.0098,-0.0099,-0.0091,-0.0092,-0.0092,-0.0081,-0.0075,0,0,0,0,0,0.0064,0.0056,0.0043,0.0034,0.0031,0.0017,0.0011,0.0004,-0.0013,-0.002,-0.0036,-0.0053,-0.0072,-0.0083,-0.01,-0.0118,-0.0114,-0.0124,-0.0124,-0.0124,-0.0119,-0.0126,-0.0126,-0.0124,-0.0124,-0.0124,0,0,0.0064,0.0055,0.005,0.0036,0.0027,0.0019,0.0013,0.0003,-0.0006,-0.0023,-0.004,-0.0056,-0.0077,-0.0097,-0.0107,-0.0106,-0.0121,-0.0125,-0.0125,-0.0119,-0.0127,-0.0127,-0.0127,-0.0124,-0.0124,-0.0124,0,0,0.0058,0.0053,0.0046,0.0038,0.0027,0.002,0.0018,0.0002,-0.0006,-0.0024,-0.0039,-0.0056,-0.0084,-0.01,-0.0112,-0.0124,-0.0122,-0.013,-0.0124,-0.0132,-0.0132,-0.0132,-0.0115,-0.0114,-0.013,-0.013,-0.013,0,0.006,0.0049,0.0041,0.0034,0.003,0.0021,0.0016,0.0004,-0.0018,-0.0025,-0.0028,-0.0067,-0.0084,-0.0108,-0.0112,-0.0124,-0.012,-0.0121,-0.0131,-0.0131,-0.0131,-0.0115,-0.0113,-0.013,-0.013,-0.013,-0.013,0,0.0051,0.0043,0.0039,0.0029,0.0023,0.0016,0.0006,-0.0003,-0.001,-0.0021,-0.0043,-0.0066,-0.0086,-0.0097,-0.011,-0.0123,-0.0116,-0.013,-0.0128,-0.0131,-0.0113,-0.0112,-0.013,-0.013,-0.013,-0.013,0,0,0.0046,0.0036,0.0033,0.0033,0.0022,0.0017,0.0006,-0.0006,-0.0011,-0.003,-0.0039,-0.0071,-0.0077,-0.009,-0.0108,-0.0116,-0.0111,-0.0122,-0.0123,-0.01,-0.011,-0.0049,-0.0042,-0.013,-0.013,-0.013,-0.0092,0,0.0041,0.0035,0.0029,0.0022,0.002,0.0013,0.0004,-0.0007,-0.0017,-0.0027,-0.0047,-0.0062,-0.0077,-0.0084,-0.0096,-0.0112,-0.011,-0.0119,-0.0114,-0.0113,-0.0056,-0.0039,-0.013,-0.0091,-0.0091,-0.009,-0.009,0,0.0031,0.003,0.0028,0.0024,0.0023,0.002,0.0014,0.0004,-0.0012,-0.0019,-0.0034,-0.0046,-0.0062,-0.0073,-0.0088,-0.0094,-0.0096,-0.0104,-0.0104,-0.0047,-0.005,-0.0091,-0.0088,-0.0088,-0.0088,-0.0088,-0.0088,0,0.0032,0.0027,0.003,0.0028,0.0023,0.0022,0.002,0.0007,0.0002,-0.001,-0.0009,-0.0032,-0.0034,-0.0052,-0.0059,-0.0076,-0.0064,-0.0092,-0.0035,-0.0031,-0.0101,-0.0101,-0.0093,-0.0093,-0.0094,-0.0094,-0.0094,0,0.0026,0.0024,0.0033,0.0032,0.0036,0.0032,0.0032,0.0024,0.0017,0.0018,-0.0001,0.0002,-0.003,-0.0028,-0.0045,-0.0019,-0.0049,-0.002,-0.0016,-0.0097,-0.0098,-0.0098,-0.01,-0.0092,-0.0093,-0.0093,-0.0093,0,0.0016,0.0021,0.0023,0.003,0.0035,0.0038,0.0043,0.0042,0.0038,0.0041,0.0041,0.0032,0.0044,0.003,0.0015,0.0017,0.0021,0.0037,-0.0019,-0.0022,0.0056,0.0054,0.0102,0.0104,0.0106,0.0108,0.011,0,0.0011,0.0011,0.0025,0.0033,0.0036,0.0045,0.005,0.0049,0.0054,0.0062,0.0067,0.0085,0.0082,0.0117,0.0096,0.0101,0.0094,0.0106,0.0056,0.0078,0.0076,0.0071,0.0067,0.0113,0.0113,0.0114,0.0115,0,-0.0001,0.0005,0.0009,0.0028,0.004,0.0054,0.0066,0.0075,0.008,0.0077,0.0104,0.012,0.0148,0.0147,0.017,0.0159,0.0099,0.0127,0.0122,0.0075,0.0092,0.0087,0.008,0.0122,0.0121,0.012,0.012,0,-0.0011,-0.0006,0.0005,0.0022,0.0041,0.0066,0.0072,0.0094,0.0103,0.0117,0.013,0.0145,0.0149,0.018,0.0189,0.0205,0.0191,0.0178,0.0169,0.0161,0.0164,0.0193,0.0271,0,0,0,0,0,-0.002,-0.0012,0.0001,0.0026,0.0048,0.0064,0.0085,0.0091,0.0104,0.0129,0.0132,0.0158,0.0193,0.02,0.0227,0.0217,0.0189,0.025,0.0167,0.0162,0.0154,0.0152,0,0,0,0,0,0,-0.0026,-0.0016,-0.0003,0.0032,0.0053,0.0081,0.0098,0.0108,0.0126,0.0136,0.0152,0.0166,0.0193,0.0175,0.0225,0.0231,0.0184,0.0262,0.0263,0.0167,0.0159,0.0153,0.0148,0,0,0,0,0]},{"header":{"parameterUnit":"m.s-1","parameterCategory":2,"la1":30.2991,"la2":30.254,"lo1":-89.0895,"lo2":-89.0444,"dy":0.0017,"dx":0.0017,"nx":28,"ny":28,"refTime":"2025-12-25T03:00:00:Z","depth":"4","parameterNumber":3,"parameterNumberName":"V-component_of_CURRENTS"},"data":[0,0,0,0,0,0,0,0,0,0,0,0,0,0,0,0,0,0,0,0,0,0,0,0,0,0,0,0,0,0,0,0,0,0,0,0,0,0,0,0,0,0,0,0,0,0,0,0,0,0,0,0,0,0,0,0,0,0,-0.0271,-0.0271,0,-0.0285,-0.0285,-0.0285,-0.0306,-0.0306,-0.0306,-0.0306,-0.0332,-0.0333,-0.0333,0,0,0,0,0,0,0,0,0,0,0,0,0,-0.0249,-0.025,-0.0271,-0.0271,-0.0271,-0.0285,-0.0285,-0.0285,-0.0306,-0.0306,-0.0306,-0.0307,-0.0332,-0.0333,-0.0333,0,0,0,0,0,0,0,0,0,0,0,0,0,-0.0261,-0.025,-0.0271,-0.0282,-0.0283,-0.0285,-0.0285,-0.0285,-0.0306,-0.0306,-0.0306,-0.0307,-0.0332,-0.0333,-0.0333,-0.033,0,0,-0.0335,-0.0336,0,0,0,0,0,0,0,0,-0.0261,-0.0262,-0.028,-0.0281,-0.0282,-0.0293,-0.0287,-0.03,-0.0306,-0.0298,-0.0306,-0.0307,-0.0319,-0.0321,-0.0324,-0.0331,-0.0332,-0.0336,-0.0336,-0.0336,-0.0336,0,0,0,0,0,0,0,-0.026,-0.0262,-0.0278,-0.028,-0.0282,-0.0282,-0.0284,-0.0289,-0.0308,-0.0299,-0.03,-0.03,-0.032,-0.0324,-0.0325,-0.0333,-0.0336,-0.0336,-0.0337,-0.0337,-0.0353,-0.0353,0,0,0,0,0,0,-0.0256,-0.0261,-0.0277,-0.0278,-0.0271,-0.0282,-0.0284,-0.029,-0.0307,-0.031,-0.0299,-0.0301,-0.0322,-0.0324,-0.0326,-0.0341,-0.0336,-0.0337,-0.0337,-0.0353,-0.0353,-0.0353,0,0,0,0,0,0,-0.0256,-0.0258,-0.0277,-0.0268,-0.0271,-0.0282,-0.0288,-0.029,-0.0302,-0.0307,-0.031,-0.0309,-0.0323,-0.0325,-0.0337,-0.0341,-0.0337,-0.0338,-0.0353,-0.0353,-0.0353,-0.0359,0,0,0,0,0,0,-0.0255,-0.0258,-0.0263,-0.0268,-0.0271,-0.0281,-0.0287,-0.029,-0.03,-0.0302,-0.0317,-0.0319,-0.0323,-0.0336,-0.0338,-0.0342,-0.0338,-0.0353,-0.0353,-0.0353,-0.0358,-0.0359,-0.0359,0,0,0,0,0,-0.0254,-0.0258,-0.0264,-0.0266,-0.0278,-0.0281,-0.0283,-0.0292,-0.03,-0.0305,-0.0316,-0.0319,-0.0337,-0.0337,-0.0339,-0.0343,-0.0353,-0.0353,-0.0353,-0.0358,-0.0359,-0.0359,0,0,0,0,0,0,-0.0255,-0.0261,-0.0267,-0.0274,-0.0279,-0.0284,-0.0288,-0.0296,-0.0308,-0.0313,-0.0321,-0.0324,-0.0335,-0.0337,-0.0337,-0.0347,-0.0344,-0.0345,-0.0348,-0.0349,-0.0349,-0.0356,-0.0339,0,0,0,0,0,-0.0256,-0.0261,-0.0267,-0.0274,-0.0275,-0.0284,-0.0288,-0.0294,-0.0303,-0.0309,-0.0319,-0.0327,-0.0335,-0.0341,-0.0346,-0.0353,-0.0361,-0.0356,-0.0357,-0.0357,-0.0363,-0.0385,-0.0388,-0.0353,-0.0353,-0.0353,0,0,-0.0258,-0.0262,-0.0266,-0.0274,-0.0279,-0.0283,-0.0288,-0.0294,-0.0301,-0.031,-0.0323,-0.033,-0.0337,-0.0345,-0.035,-0.0349,-0.0368,-0.0357,-0.0358,-0.0364,-0.0385,-0.0389,-0.0392,-0.0353,-0.0353,-0.0353,0,0,-0.0259,-0.0268,-0.0271,-0.0274,-0.028,-0.0285,-0.0289,-0.0297,-0.0305,-0.0314,-0.0323,-0.0336,-0.0342,-0.0353,-0.0357,-0.0363,-0.037,-0.0361,-0.037,-0.0391,-0.0394,-0.0397,-0.04,-0.0404,-0.0361,-0.0361,-0.0362,0,-0.0262,-0.0268,-0.0272,-0.0273,-0.0278,-0.0287,-0.0292,-0.0299,-0.0311,-0.032,-0.0318,-0.0341,-0.0347,-0.0366,-0.0367,-0.0366,-0.0373,-0.0369,-0.0392,-0.0396,-0.0399,-0.0401,-0.0405,-0.0362,-0.0362,-0.0362,-0.0362,0,-0.0261,-0.0268,-0.0269,-0.0277,-0.0282,-0.0288,-0.0295,-0.0305,-0.0314,-0.0323,-0.0341,-0.035,-0.0367,-0.0366,-0.0369,-0.0393,-0.0388,-0.0391,-0.0393,-0.0403,-0.0404,-0.0408,-0.0362,-0.0362,-0.0362,-0.0362,0,0,-0.0262,-0.0268,-0.027,-0.0275,-0.0286,-0.029,-0.0303,-0.0317,-0.033,-0.034,-0.0358,-0.0371,-0.0382,-0.0389,-0.0395,-0.041,-0.0432,-0.041,-0.0411,-0.0416,-0.0467,-0.0422,-0.0422,-0.0441,-0.0442,-0.0443,-0.0455,0,-0.0262,-0.0265,-0.0271,-0.0281,-0.0284,-0.0299,-0.0309,-0.0324,-0.0337,-0.0354,-0.037,-0.0388,-0.0389,-0.04,-0.0416,-0.0432,-0.0444,-0.0427,-0.0454,-0.0455,-0.0417,-0.0426,-0.0446,-0.0458,-0.0459,-0.0459,-0.046,0,-0.0261,-0.0263,-0.027,-0.0285,-0.0289,-0.0299,-0.0323,-0.0333,-0.0359,-0.0368,-0.0393,-0.0406,-0.0436,-0.043,-0.0467,-0.0458,-0.0465,-0.047,-0.0471,-0.0433,-0.0417,-0.0449,-0.0467,-0.0466,-0.0466,-0.0465,-0.0465,0,-0.0256,-0.0266,-0.0273,-0.0277,-0.0292,-0.0305,-0.0318,-0.0341,-0.035,-0.0385,-0.0391,-0.0431,-0.0444,-0.0472,-0.048,-0.0483,-0.0507,-0.0514,-0.0477,-0.0474,-0.0508,-0.0505,-0.0538,-0.0538,-0.0538,-0.0538,-0.0538,0,-0.0254,-0.0261,-0.0272,-0.0275,-0.0287,-0.0303,-0.0321,-0.0338,-0.036,-0.0367,-0.0402,-0.0409,-0.0456,-0.0471,-0.0487,-0.0486,-0.0516,-0.0482,-0.0478,-0.0508,-0.0504,-0.051,-0.0507,-0.0539,-0.0539,-0.0539,-0.0539,0,-0.0248,-0.0255,-0.0262,-0.0278,-0.0284,-0.0294,-0.0315,-0.0324,-0.0348,-0.0358,-0.0369,-0.0399,-0.0417,-0.0444,-0.0479,-0.0482,-0.0495,-0.0484,-0.05,-0.0497,-0.0448,-0.0445,-0.0462,-0.0461,-0.046,-0.0459,-0.0458,0,-0.0245,-0.0247,-0.026,-0.0262,-0.0271,-0.0285,-0.0292,-0.0317,-0.0322,-0.0341,-0.0341,-0.0363,-0.0379,-0.0388,-0.0427,-0.0454,-0.045,-0.046,-0.0471,-0.0447,-0.0443,-0.0441,-0.044,-0.0456,-0.0456,-0.0455,-0.0455,0,-0.0237,-0.0244,-0.0247,-0.0248,-0.0257,-0.0263,-0.0276,-0.0274,-0.0295,-0.0311,-0.0305,-0.032,-0.0328,-0.036,-0.0371,-0.0394,-0.0464,-0.0449,-0.0452,-0.0462,-0.044,-0.0436,-0.0436,-0.0451,-0.0451,-0.0452,-0.0452,0,-0.0233,-0.023,-0.0232,-0.0234,-0.0241,-0.0243,-0.0251,-0.0251,-0.0256,-0.0272,-0.0265,-0.0287,-0.0307,-0.0326,-0.0342,-0.0356,-0.0366,-0.0378,-0.0385,-0.039,-0.0364,-0.0326,-0.0301,0,0,0,0,0,-0.0227,-0.022,-0.0218,-0.0219,-0.0225,-0.023,-0.0239,-0.0246,-0.0257,-0.0239,-0.0251,-0.0254,-0.0273,-0.0291,-0.0294,-0.0332,-0.0379,-0.0338,-0.0399,-0.0428,-0.0433,-0.041,0,0,0,0,0,0,-0.0222,-0.0218,-0.0212,-0.0207,-0.0206,-0.0213,-0.0218,-0.0226,-0.0217,-0.0226,-0.0232,-0.0246,-0.0266,-0.0261,-0.0289,-0.0297,-0.0334,-0.0353,-0.0353,-0.0426,-0.043,-0.0434,-0.0412,0,0,0,0,0]}]]